User: anonymous   Login
Location: Maiden_LMO
(35.5760°N, 81.2120°W)
Time: 21:55:16
(UTC-04:00)
Language:

Cosmos 2278 Rocket - Orbit

View from above orbital plane
View from above orbital plane
View from above satellite
View from above satellite

Ground track
Ground track

The orbit data is extracted from the following two-line orbital elements,

1 23088U 94023B   14304.74195725  .00000329  00000-0  19624-3 0   610
2 23088 070.9978 135.7274 0001683 146.6905 287.0854 14.14585552 59863
Epoch (UTC): 31 October 2014 17:48:25
Eccentricity: 0.0001683
inclination: 70.9978°
perigee height: 842 km
apogee height: 845 km
right ascension of ascending node: 135.7274°
argument of perigee: 146.6905°
revolutions per day: 14.14585552
mean anomaly at epoch: 287.0854°
orbit number at epoch: 5986

The dashed part of the orbit path shows where the satellite is in the earth's shadow,  

DLR